Flag for Isle of Man Weather past 2 weeks in Douglas, Isle of Man

50 °F

Passing clouds.

Feels Like: 44 °F
Forecast: N/A
Wind: 16 mph from Northwest

Location: Isle Of Man / Ronaldsway Airport

Current Time: Nov 25, 2015 at 6:26:11 PM

Latest Report: Nov 25, 2015 at 5:50 PM

Visibility: N/A

Pressure: 30.01 "Hg

Humidity: 88%

Dew point: 46 °F

Location of DouglasLocation

Historic Weather in Douglas — Graph


Douglas temperature yesterday

Maximum temperature yesterday: 50 °F (at 11:50 AM)
Minimum temperature yesterday: 46 °F (at 4:50 AM)
Average temperature yesterday: 48 °F

Past Weeks' High & Low Weather Summary

High57 °F (Nov 10, 5:20 PM)100% (Nov 10, 10:50 PM)30.24 "Hg (Nov 10, 10:50 PM)
Low32 °F (Nov 22, 11:50 PM)45% (Nov 20, 4:50 PM)29.12 "Hg (Nov 17, 2:20 PM)
Average49 °F79%29.77 "Hg
* Reported Nov 10 5:20 PM — Nov 25 5:20 PM, Douglas, Weather by CustomWeather, © 2015

Note: Actual official high and low records may vary slightly from our data, if they occured in-between our weather recording intervals... More about our weather records


Douglas weather history for previous 24 hours

Time TempWeatherWind HumidityBarometerVisibility
5:20 PM
Wed, Nov 25
50 °FPassing clouds.14 mph88%30.01 "HgN/A
4:50 PM50 °FPassing clouds.16 mph88%29.98 "HgN/A
4:20 PM50 °FPassing clouds.17 mph88%29.98 "HgN/A
3:50 PM50 °FScattered clouds.18 mph88%29.95 "HgN/A
3:20 PM50 °FDrizzle. Partly sunny.17 mph88%29.95 "Hg4 mi
2:50 PM50 °FDrizzle. Partly sunny.18 mph88%29.95 "Hg5 mi
2:20 PM50 °FDrizzle. Partly sunny.17 mph94%29.95 "Hg3 mi
1:50 PM50 °FDrizzle. Broken clouds.18 mph94%29.95 "Hg2 mi
1:20 PM50 °FDrizzle. Partly sunny.15 mph94%29.95 "Hg2 mi
12:50 PM50 °FDrizzle. Partly sunny.16 mph94%29.95 "Hg3 mi
12:20 PM50 °FBroken clouds.17 mph88%29.92 "HgN/A
11:50 AM50 °FBroken clouds.16 mph88%29.92 "HgN/A
11:20 AM50 °FBroken clouds.18 mph88%29.92 "HgN/A
10:50 AM50 °FHeavy rain. Broken clouds.17 mph94%29.92 "Hg2 mi
10:20 AM50 °FScattered clouds.17 mph88%29.92 "HgN/A
9:50 AM50 °FPartly sunny.17 mph88%29.92 "HgN/A
9:20 AM50 °FDrizzle. Partly sunny.22 mph88%29.89 "Hg3 mi
8:50 AM50 °FScattered clouds.21 mph88%29.86 "HgN/A
8:20 AM50 °FDrizzle. Broken clouds.20 mph88%29.86 "HgN/A
7:50 AM50 °FPassing clouds.21 mph88%29.86 "HgN/A
5:50 AM50 °FLight rain. Mostly cloudy.16 mph88%29.83 "HgN/A
5:20 AM50 °FLight rain. Passing clouds.15 mph82%29.83 "HgN/A
4:50 AM50 °FPartly cloudy.18 mph82%29.83 "HgN/A
3:50 AM48 °FPassing clouds.18 mph82%29.80 "HgN/A
2:50 AM48 °FPassing clouds.20 mph82%29.80 "HgN/A
12:50 AM48 °FPassing clouds.18 mph82%29.80 "HgN/A
11:50 PM
Tue, Nov 24
48 °FPassing clouds.15 mph82%29.80 "HgN/A
11:20 PM48 °FPassing clouds.20 mph82%29.80 "HgN/A
10:50 PM48 °FPassing clouds.20 mph82%29.77 "HgN/A
10:20 PM48 °FPassing clouds.20 mph82%29.77 "HgN/A
9:50 PM48 °FPassing clouds.20 mph82%29.77 "HgN/A
9:20 PM48 °FPassing clouds.22 mph82%29.77 "HgN/A
8:50 PM48 °FPassing clouds.21 mph82%29.77 "HgN/A
8:20 PM48 °FPassing clouds.20 mph76%29.77 "HgN/A
7:50 PM48 °FPartly cloudy.17 mph82%29.77 "HgN/A
7:20 PM48 °FPassing clouds.17 mph82%29.77 "HgN/A
6:50 PM48 °FPassing clouds.20 mph82%29.77 "HgN/A
6:20 PM48 °FPassing clouds.18 mph82%29.74 "HgN/A
Weather by CustomWeather, © 2015

See weather overviewHow to use our weather pages